Time,TemperatureF,DewpointF,PressureIn,WindDirection,WindDirectionDegrees,WindSpeedMPH,WindSpeedGustMPH,Humidity,HourlyPrecipIn,Conditions,Clouds,dailyrainin,SoftwareType,DateUTC
2013-04-18 00:03:00,76.0,70.0,30.07,North,8,2.0,4.0,82,0.00,,,0.00,,2013-04-18 04:03:00,
2013-04-18 00:13:00,76.0,70.0,30.07,North,8,2.0,4.0,82,0.00,,,0.00,,2013-04-18 04:13:00,
2013-04-18 00:23:00,76.0,70.0,30.06,ESE,108,3.0,7.0,82,0.00,,,0.00,,2013-04-18 04:23:00,
2013-04-18 00:33:00,76.0,70.0,30.06,East,80,1.0,4.0,82,0.00,,,0.00,,2013-04-18 04:33:00,
2013-04-18 00:43:00,76.0,70.0,30.05,East,82,1.0,4.0,82,0.00,,,0.00,,2013-04-18 04:43:00,
2013-04-18 00:53:00,76.0,70.0,30.05,East,82,1.0,4.0,82,0.00,,,0.00,,2013-04-18 04:53:00,
2013-04-18 01:02:00,76.0,70.0,30.05,East,87,1.0,4.0,82,0.00,,,0.00,,2013-04-18 05:02:00,
2013-04-18 01:12:00,76.0,70.0,30.05,East,97,0.0,2.0,83,0.00,,,0.00,,2013-04-18 05:12:00,
2013-04-18 01:22:00,76.0,70.0,30.05,East,97,0.0,2.0,83,0.00,,,0.00,,2013-04-18 05:22:00,
2013-04-18 01:33:00,76.0,70.0,30.04,East,86,1.0,4.0,83,0.00,,,0.00,,2013-04-18 05:33:00,
2013-04-18 01:42:00,76.0,71.0,30.04,East,93,0.0,2.0,84,0.00,,,0.00,,2013-04-18 05:42:00,
2013-04-18 01:52:00,76.0,71.0,30.04,East,93,0.0,2.0,84,0.00,,,0.00,,2013-04-18 05:52:00,
2013-04-18 02:02:00,76.0,71.0,30.03,East,91,0.0,1.0,84,0.00,,,0.00,,2013-04-18 06:02:00,
2013-04-18 02:12:00,75.0,70.0,30.03,East,87,0.0,1.0,85,0.00,,,0.00,,2013-04-18 06:12:00,
2013-04-18 02:22:00,75.0,70.0,30.03,East,87,0.0,1.0,85,0.00,,,0.00,,2013-04-18 06:22:00,
2013-04-18 02:32:00,75.0,70.0,30.03,ESE,105,0.0,3.0,85,0.00,,,0.00,,2013-04-18 06:32:00,
2013-04-18 02:42:00,76.0,71.0,30.01,NE,56,1.0,3.0,84,0.00,,,0.00,,2013-04-18 06:42:00,
2013-04-18 02:52:00,76.0,71.0,30.01,NE,56,1.0,3.0,84,0.00,,,0.00,,2013-04-18 06:52:00,
2013-04-18 03:02:00,76.0,71.0,30.02,East,87,1.0,3.0,84,0.00,,,0.00,,2013-04-18 07:02:00,
2013-04-18 03:12:00,76.0,71.0,30.02,East,95,0.0,1.0,84,0.00,,,0.00,,2013-04-18 07:12:00,
2013-04-18 03:22:00,76.0,71.0,30.02,East,95,0.0,1.0,84,0.00,,,0.00,,2013-04-18 07:22:00,
2013-04-18 03:32:00,76.0,71.0,30.01,East,98,1.0,2.0,84,0.00,,,0.00,,2013-04-18 07:32:00,
2013-04-18 03:42:00,76.0,70.0,30.01,East,86,0.0,5.0,83,0.00,,,0.00,,2013-04-18 07:42:00,
2013-04-18 03:53:00,76.0,70.0,30.01,East,86,0.0,5.0,83,0.00,,,0.00,,2013-04-18 07:53:00,
2013-04-18 04:02:00,76.0,70.0,30.00,ESE,108,0.0,2.0,83,0.00,,,0.00,,2013-04-18 08:02:00,
2013-04-18 04:12:00,75.0,70.0,30.00,East,87,0.0,1.0,84,0.00,,,0.00,,2013-04-18 08:12:00,
2013-04-18 04:22:00,75.0,70.0,30.00,East,87,0.0,1.0,84,0.00,,,0.00,,2013-04-18 08:22:00,
2013-04-18 04:32:00,75.0,70.0,30.00,ESE,113,0.0,3.0,85,0.00,,,0.00,,2013-04-18 08:32:00,
2013-04-18 04:42:00,75.0,70.0,30.00,ESE,106,0.0,1.0,85,0.00,,,0.00,,2013-04-18 08:42:00,
2013-04-18 04:52:00,75.0,70.0,30.00,ESE,106,0.0,1.0,85,0.00,,,0.00,,2013-04-18 08:52:00,
2013-04-18 05:02:00,75.0,70.0,30.00,ESE,106,0.0,1.0,85,0.00,,,0.00,,2013-04-18 09:02:00,
2013-04-18 05:12:00,75.0,71.0,30.00,ESE,105,0.0,0.0,87,0.00,,,0.00,,2013-04-18 09:12:00,
2013-04-18 05:22:00,75.0,71.0,30.00,ESE,105,0.0,0.0,87,0.00,,,0.00,,2013-04-18 09:22:00,
2013-04-18 05:33:00,74.0,70.0,30.01,ESE,106,0.0,0.0,88,0.00,,,0.00,,2013-04-18 09:33:00,
2013-04-18 05:43:00,74.0,71.0,30.00,ESE,103,0.0,2.0,89,0.00,,,0.00,,2013-04-18 09:43:00,
2013-04-18 05:53:00,74.0,71.0,30.00,ESE,103,0.0,2.0,89,0.00,,,0.00,,2013-04-18 09:53:00,
2013-04-18 06:03:00,74.0,70.0,30.00,ESE,114,0.0,2.0,88,0.00,,,0.00,,2013-04-18 10:03:00,
2013-04-18 06:12:00,74.0,70.0,30.00,ESE,114,0.0,2.0,88,0.00,,,0.00,,2013-04-18 10:12:00,
2013-04-18 06:23:00,75.0,71.0,30.01,East,100,0.0,3.0,87,0.00,,,0.00,,2013-04-18 10:23:00,
2013-04-18 06:32:00,75.0,71.0,30.01,East,91,0.0,1.0,88,0.00,,,0.00,,2013-04-18 10:32:00,
2013-04-18 06:42:00,75.0,71.0,30.01,East,91,0.0,1.0,88,0.00,,,0.00,,2013-04-18 10:42:00,
2013-04-18 06:52:00,75.0,71.0,30.02,East,87,0.0,1.0,88,0.00,,,0.00,,2013-04-18 10:52:00,
2013-04-18 07:02:00,75.0,71.0,30.02,East,87,0.0,0.0,88,0.00,,,0.00,,2013-04-18 11:02:00,
2013-04-18 07:12:00,76.0,72.0,30.03,East,92,0.0,2.0,88,0.00,,,0.00,,2013-04-18 11:12:00,
2013-04-18 07:22:00,76.0,72.0,30.03,East,92,0.0,2.0,88,0.00,,,0.00,,2013-04-18 11:22:00,
2013-04-18 07:32:00,76.0,72.0,30.03,East,101,0.0,2.0,86,0.00,,,0.00,,2013-04-18 11:32:00,
2013-04-18 07:42:00,76.0,72.0,30.03,East,101,0.0,2.0,86,0.00,,,0.00,,2013-04-18 11:42:00,
2013-04-18 07:52:00,78.0,72.0,30.04,ESE,105,0.0,1.0,83,0.00,,,0.00,,2013-04-18 11:52:00,
2013-04-18 08:02:00,78.0,72.0,30.04,ESE,103,1.0,3.0,81,0.00,,,0.00,,2013-04-18 12:02:00,
2013-04-18 08:12:00,79.0,72.0,30.04,ESE,113,0.0,3.0,80,0.00,,,0.00,,2013-04-18 12:12:00,
2013-04-18 08:22:00,79.0,72.0,30.04,ESE,113,0.0,3.0,80,0.00,,,0.00,,2013-04-18 12:22:00,
2013-04-18 08:32:00,79.0,72.0,30.05,SSE,156,2.0,5.0,78,0.00,,,0.00,,2013-04-18 12:32:00,
2013-04-18 08:42:00,79.0,72.0,30.05,SSE,156,2.0,5.0,78,0.00,,,0.00,,2013-04-18 12:42:00,
2013-04-18 08:52:00,80.0,72.0,30.06,ESE,113,0.0,7.0,78,0.00,,,0.00,,2013-04-18 12:52:00,
2013-04-18 09:02:00,81.0,72.0,30.06,East,83,2.0,8.0,74,0.00,,,0.00,,2013-04-18 13:02:00,
2013-04-18 09:12:00,82.0,73.0,30.06,ENE,63,3.0,7.0,74,0.00,,,0.00,,2013-04-18 13:12:00,
2013-04-18 09:22:00,82.0,73.0,30.06,ENE,63,3.0,7.0,74,0.00,,,0.00,,2013-04-18 13:22:00,
2013-04-18 09:32:00,81.0,72.0,30.06,East,86,2.0,6.0,75,0.00,,,0.00,,2013-04-18 13:32:00,
2013-04-18 09:42:00,81.0,72.0,30.06,ESE,108,2.0,5.0,75,0.00,,,0.00,,2013-04-18 13:42:00,
2013-04-18 09:53:00,81.0,72.0,30.06,ESE,108,2.0,5.0,75,0.00,,,0.00,,2013-04-18 13:53:00,
2013-04-18 10:02:00,82.0,72.0,30.07,East,91,1.0,6.0,73,0.00,,,0.00,,2013-04-18 14:02:00,
2013-04-18 10:12:00,82.0,72.0,30.07,ENE,76,2.0,9.0,72,0.00,,,0.00,,2013-04-18 14:12:00,
2013-04-18 10:22:00,82.0,72.0,30.07,ENE,76,2.0,9.0,72,0.00,,,0.00,,2013-04-18 14:22:00,
2013-04-18 10:32:00,82.0,72.0,30.08,SE,138,1.0,6.0,72,0.00,,,0.00,,2013-04-18 14:32:00,
2013-04-18 10:43:00,83.0,72.0,30.08,East,91,2.0,7.0,70,0.00,,,0.00,,2013-04-18 14:43:00,
2013-04-18 10:52:00,83.0,72.0,30.08,East,91,2.0,7.0,70,0.00,,,0.00,,2013-04-18 14:52:00,
2013-04-18 11:03:00,83.0,72.0,30.08,SE,135,2.0,5.0,70,0.00,,,0.00,,2013-04-18 15:03:00,
2013-04-18 11:12:00,83.0,72.0,30.08,SE,135,2.0,5.0,70,0.00,,,0.00,,2013-04-18 15:12:00,
2013-04-18 11:22:00,83.0,72.0,30.08,NE,46,2.0,8.0,70,0.00,,,0.00,,2013-04-18 15:22:00,
2013-04-18 11:33:00,85.0,71.0,30.07,East,100,3.0,9.0,63,0.00,,,0.00,,2013-04-18 15:33:00,
2013-04-18 11:43:00,85.0,71.0,30.06,SSE,147,5.0,11.0,64,0.00,,,0.00,,2013-04-18 15:43:00,
2013-04-18 11:52:00,85.0,71.0,30.06,SSE,147,5.0,11.0,64,0.00,,,0.00,,2013-04-18 15:52:00,
2013-04-18 12:03:00,85.0,72.0,30.06,ENE,59,4.0,7.0,66,0.00,,,0.00,,2013-04-18 16:03:00,
2013-04-18 12:13:00,84.0,71.0,30.06,South,179,3.0,10.0,66,0.00,,,0.00,,2013-04-18 16:13:00,
2013-04-18 12:23:00,84.0,71.0,30.06,South,179,3.0,10.0,66,0.00,,,0.00,,2013-04-18 16:23:00,
2013-04-18 12:33:00,85.0,73.0,30.06,ESE,110,3.0,10.0,67,0.00,,,0.00,,2013-04-18 16:33:00,
2013-04-18 12:43:00,85.0,72.0,30.05,ESE,113,2.0,8.0,65,0.00,,,0.00,,2013-04-18 16:43:00,
2013-04-18 12:53:00,85.0,72.0,30.05,ESE,113,2.0,8.0,65,0.00,,,0.00,,2013-04-18 16:53:00,
2013-04-18 13:03:00,85.0,73.0,30.05,SSW,199,2.0,13.0,67,0.00,,,0.00,,2013-04-18 17:03:00,
2013-04-18 13:13:00,86.0,73.0,30.04,SSE,160,3.0,9.0,65,0.00,,,0.00,,2013-04-18 17:13:00,
2013-04-18 13:22:00,86.0,73.0,30.04,SSE,160,3.0,9.0,65,0.00,,,0.00,,2013-04-18 17:22:00,
2013-04-18 13:33:00,86.0,73.0,30.04,East,98,6.0,13.0,65,0.00,,,0.00,,2013-04-18 17:33:00,
2013-04-18 13:42:00,86.0,73.0,30.03,ENE,70,4.0,9.0,65,0.00,,,0.00,,2013-04-18 17:42:00,
2013-04-18 13:52:00,86.0,73.0,30.03,ENE,70,4.0,9.0,65,0.00,,,0.00,,2013-04-18 17:52:00,
2013-04-18 14:03:00,86.0,75.0,30.03,ESE,115,2.0,6.0,69,0.00,,,0.00,,2013-04-18 18:03:00,
2013-04-18 14:12:00,86.0,74.0,30.03,ESE,120,3.0,12.0,68,0.00,,,0.00,,2013-04-18 18:12:00,
2013-04-18 14:23:00,86.0,74.0,30.03,ESE,120,3.0,12.0,68,0.00,,,0.00,,2013-04-18 18:23:00,
2013-04-18 14:32:00,87.0,74.0,30.03,ENE,70,2.0,7.0,65,0.00,,,0.00,,2013-04-18 18:32:00,
2013-04-18 14:42:00,87.0,73.0,30.03,SE,146,6.0,10.0,64,0.00,,,0.00,,2013-04-18 18:42:00,
2013-04-18 14:52:00,87.0,73.0,30.03,SE,146,6.0,10.0,64,0.00,,,0.00,,2013-04-18 18:52:00,
2013-04-18 15:02:00,86.0,73.0,30.02,ESE,104,4.0,11.0,66,0.00,,,0.00,,2013-04-18 19:02:00,
2013-04-18 15:12:00,86.0,73.0,30.02,ESE,104,4.0,11.0,66,0.00,,,0.00,,2013-04-18 19:12:00,
2013-04-18 15:22:00,87.0,74.0,30.02,SSE,148,2.0,11.0,65,0.00,,,0.00,,2013-04-18 19:22:00,
2013-04-18 15:32:00,86.0,73.0,30.01,SSE,150,2.0,12.0,65,0.00,,,0.00,,2013-04-18 19:32:00,
2013-04-18 15:42:00,86.0,73.0,30.01,SSE,150,2.0,12.0,65,0.00,,,0.00,,2013-04-18 19:42:00,
2013-04-18 15:53:00,86.0,71.0,30.01,South,177,4.0,12.0,62,0.00,,,0.00,,2013-04-18 19:53:00,
2013-04-18 16:02:00,86.0,71.0,30.01,SSW,204,3.0,9.0,62,0.00,,,0.00,,2013-04-18 20:02:00,
2013-04-18 16:12:00,87.0,72.0,30.00,SE,127,2.0,7.0,61,0.00,,,0.00,,2013-04-18 20:12:00,
2013-04-18 16:22:00,87.0,72.0,30.00,SE,127,2.0,7.0,61,0.00,,,0.00,,2013-04-18 20:22:00,
2013-04-18 16:32:00,87.0,71.0,30.00,South,188,1.0,8.0,60,0.00,,,0.00,,2013-04-18 20:32:00,
2013-04-18 16:42:00,87.0,72.0,30.01,ESE,111,2.0,9.0,61,0.00,,,0.00,,2013-04-18 20:42:00,
2013-04-18 16:52:00,87.0,72.0,30.01,ESE,111,2.0,9.0,61,0.00,,,0.00,,2013-04-18 20:52:00,
2013-04-18 17:02:00,86.0,71.0,30.01,ENE,75,1.0,8.0,62,0.00,,,0.00,,2013-04-18 21:02:00,
2013-04-18 17:12:00,87.0,72.0,30.01,ENE,74,3.0,10.0,62,0.00,,,0.00,,2013-04-18 21:12:00,
2013-04-18 17:22:00,87.0,72.0,30.01,ENE,74,3.0,10.0,62,0.00,,,0.00,,2013-04-18 21:22:00,
2013-04-18 17:33:00,86.0,73.0,30.00,East,98,2.0,7.0,66,0.00,,,0.00,,2013-04-18 21:33:00,
2013-04-18 17:43:00,86.0,73.0,30.01,East,89,2.0,10.0,65,0.00,,,0.00,,2013-04-18 21:43:00,
2013-04-18 17:53:00,86.0,73.0,30.01,East,89,2.0,10.0,65,0.00,,,0.00,,2013-04-18 21:53:00,
2013-04-18 18:02:00,86.0,73.0,30.01,NE,53,1.0,6.0,66,0.00,,,0.00,,2013-04-18 22:02:00,
2013-04-18 18:13:00,86.0,73.0,30.01,NE,53,1.0,6.0,66,0.00,,,0.00,,2013-04-18 22:13:00,
2013-04-18 18:23:00,86.0,73.0,30.01,NE,53,1.0,6.0,66,0.00,,,0.00,,2013-04-18 22:23:00,
2013-04-18 18:32:00,85.0,72.0,30.01,SW,226,1.0,8.0,65,0.00,,,0.00,,2013-04-18 22:32:00,
2013-04-18 18:42:00,83.0,72.0,30.01,East,82,4.0,8.0,70,0.00,,,0.00,,2013-04-18 22:42:00,
2013-04-18 18:53:00,83.0,72.0,30.01,East,82,4.0,8.0,70,0.00,,,0.00,,2013-04-18 22:53:00,
2013-04-18 19:04:00,82.0,72.0,30.00,ESE,118,2.0,7.0,71,0.00,,,0.00,,2013-04-18 23:04:00,
2013-04-18 19:12:00,83.0,72.0,30.00,East,91,2.0,8.0,70,0.00,,,0.00,,2013-04-18 23:12:00,
2013-04-18 19:21:00,83.0,72.0,30.00,East,91,2.0,8.0,70,0.00,,,0.00,,2013-04-18 23:21:00,
2013-04-18 19:32:00,82.0,72.0,30.01,East,96,1.0,10.0,73,0.00,,,0.00,,2013-04-18 23:32:00,
2013-04-18 19:42:00,81.0,73.0,30.01,SE,125,1.0,5.0,76,0.00,,,0.00,,2013-04-18 23:42:00,
2013-04-18 19:52:00,81.0,73.0,30.01,SE,125,1.0,5.0,76,0.00,,,0.00,,2013-04-18 23:52:00,
2013-04-18 20:01:00,81.0,73.0,30.01,East,80,2.0,6.0,77,0.00,,,0.00,,2013-04-19 00:01:00,
2013-04-18 20:12:00,80.0,73.0,30.02,East,82,1.0,7.0,79,0.00,,,0.00,,2013-04-19 00:12:00,
2013-04-18 20:22:00,80.0,73.0,30.02,East,82,1.0,7.0,79,0.00,,,0.00,,2013-04-19 00:22:00,
2013-04-18 20:32:00,80.0,73.0,30.02,ESE,111,1.0,7.0,80,0.00,,,0.00,,2013-04-19 00:32:00,
2013-04-18 20:42:00,80.0,73.0,30.02,SE,125,3.0,8.0,79,0.00,,,0.00,,2013-04-19 00:42:00,
2013-04-18 20:52:00,80.0,73.0,30.02,SE,125,3.0,8.0,79,0.00,,,0.00,,2013-04-19 00:52:00,
2013-04-18 21:01:00,79.0,72.0,30.03,East,82,1.0,5.0,80,0.00,,,0.00,,2013-04-19 01:01:00,
2013-04-18 21:11:00,79.0,72.0,30.03,East,82,1.0,5.0,80,0.00,,,0.00,,2013-04-19 01:11:00,
2013-04-18 21:21:00,79.0,72.0,30.03,ESE,123,1.0,5.0,80,0.00,,,0.00,,2013-04-19 01:21:00,
2013-04-18 21:32:00,79.0,72.0,30.03,East,89,3.0,5.0,80,0.00,,,0.00,,2013-04-19 01:32:00,
2013-04-18 21:42:00,79.0,73.0,30.03,East,98,0.0,4.0,81,0.00,,,0.00,,2013-04-19 01:42:00,
2013-04-18 21:52:00,79.0,73.0,30.03,East,98,0.0,4.0,81,0.00,,,0.00,,2013-04-19 01:52:00,
2013-04-18 22:02:00,79.0,73.0,30.04,East,88,0.0,2.0,82,0.00,,,0.00,,2013-04-19 02:02:00,
2013-04-18 22:11:00,79.0,73.0,30.04,East,88,0.0,2.0,82,0.00,,,0.00,,2013-04-19 02:11:00,
2013-04-18 22:21:00,79.0,73.0,30.04,ESE,115,1.0,3.0,83,0.00,,,0.00,,2013-04-19 02:21:00,
2013-04-18 22:32:00,79.0,74.0,30.04,SSE,155,0.0,4.0,84,0.00,,,0.00,,2013-04-19 02:32:00,
2013-04-18 22:42:00,79.0,74.0,30.04,SE,132,2.0,8.0,84,0.00,,,0.00,,2013-04-19 02:42:00,
2013-04-18 22:52:00,79.0,74.0,30.04,SE,132,2.0,8.0,84,0.00,,,0.00,,2013-04-19 02:52:00,
2013-04-18 23:01:00,79.0,74.0,30.04,SE,145,2.0,7.0,84,0.00,,,0.00,,2013-04-19 03:01:00,
2013-04-18 23:12:00,79.0,73.0,30.04,ESE,103,2.0,8.0,82,0.00,,,0.00,,2013-04-19 03:12:00,
2013-04-18 23:22:00,79.0,73.0,30.04,ESE,103,2.0,8.0,82,0.00,,,0.00,,2013-04-19 03:22:00,
2013-04-18 23:33:00,78.0,72.0,30.04,SE,134,1.0,3.0,81,0.00,,,0.00,,2013-04-19 03:33:00,
2013-04-18 23:43:00,78.0,72.0,30.04,SE,128,0.0,3.0,81,0.00,,,0.00,,2013-04-19 03:43:00,
2013-04-18 23:53:00,78.0,72.0,30.04,SE,128,0.0,3.0,81,0.00,,,0.00,,2013-04-19 03:53:00,